User: anonymous   Login
Location: Vancouver
(49.2500°N, 123.1330°W)
Time: 22:42:47
(UTC-08:00)
Language:

Transit 2A Rocket - Orbit

View from above orbital plane
View from above orbital plane
View from above satellite
View from above satellite

Ground track
Ground track

The orbit data is extracted from the following two-line orbital elements,

1 00047U 60007C   17018.82312887 -.00000017  00000-0  21277-4 0  9992
2 00047  66.6647 245.1559 0222925 135.8386 226.0759 14.41889184955531
Epoch (UTC): 18 January 2017 19:45:18
Eccentricity: 0.0222925
inclination: 66.6647°
perigee height: 593 km
apogee height: 911 km
right ascension of ascending node: 245.1559°
argument of perigee: 135.8386°
revolutions per day: 14.41889184
mean anomaly at epoch: 226.0759°
orbit number at epoch: 95553

The dashed part of the orbit path shows where the satellite is in the earth's shadow,  

DLR